contact:dominique.lefevre@mio.osupytheas.fr, maurice.libes@osupytheas.fr, didier.mallarino@osupytheas.fr
Project:EMSO http://www.emso-fr.org/EMSO-France
Depth: 2436.0 m
Title:EMSO Ligure Ouest : Data MII capteur CSTAR
DateTime,Latitude,Longitude,Instrument_Serial,Reference_Counts,Signal_Counts,Corrected_Signal_raw_counts,Calculated_Beam_c_inverse_meters,Internal_thermistor_counts
DateTime,Latitude,Longitude,Instrument_Serial,Reference_Counts,Signal_Counts,Corrected_Signal_raw_counts,Calculated_Beam_c_inverse_meters,Internal_thermistor_counts
2019-05-26T00:00:38,42.805,6.029,CST-1368DR,9355,13092,15576,0.010,551
2019-05-26T00:03:39,42.805,6.029,CST-1368DR,9355,13093,15577,0.010,551
2019-05-26T00:06:41,42.805,6.029,CST-1368DR,9355,13093,15577,0.010,551
2019-05-26T00:09:42,42.805,6.029,CST-1368DR,9355,13092,15577,0.010,551
2019-05-26T00:12:44,42.805,6.029,CST-1368DR,9355,13093,15578,0.010,551
2019-05-26T00:15:45,42.805,6.029,CST-1368DR,9355,13093,15577,0.010,551
2019-05-26T00:18:46,42.805,6.029,CST-1368DR,9355,13093,15578,0.010,551
2019-05-26T00:21:48,42.805,6.029,CST-1368DR,9355,13094,15578,0.010,550
2019-05-26T00:24:49,42.805,6.029,CST-1368DR,9355,13093,15577,0.010,550
2019-05-26T00:27:51,42.805,6.029,CST-1368DR,9355,13090,15574,0.011,551
2019-05-26T00:30:52,42.805,6.029,CST-1368DR,9355,13093,15578,0.010,551
2019-05-26T00:33:54,42.805,6.029,CST-1368DR,9355,13093,15578,0.010,551
2019-05-26T00:36:55,42.805,6.029,CST-1368DR,9355,13093,15578,0.010,551
2019-05-26T00:39:56,42.805,6.029,CST-1368DR,9355,13093,15578,0.010,551
2019-05-26T00:42:58,42.805,6.029,CST-1368DR,9355,13093,15577,0.010,551
2019-05-26T00:45:59,42.805,6.029,CST-1368DR,9355,13093,15578,0.010,551
2019-05-26T00:49:01,42.805,6.029,CST-1368DR,9355,13092,15577,0.010,550
2019-05-26T00:52:02,42.805,6.029,CST-1368DR,9355,13090,15574,0.011,551
2019-05-26T00:55:03,42.805,6.029,CST-1368DR,9355,13093,15577,0.010,551
2019-05-26T00:58:05,42.805,6.029,CST-1368DR,9355,13091,15576,0.010,551
2019-05-26T01:01:06,42.805,6.029,CST-1368DR,9355,13092,15577,0.010,551
2019-05-26T01:04:08,42.805,6.029,CST-1368DR,9355,13093,15577,0.010,551
2019-05-26T01:07:09,42.805,6.029,CST-1368DR,9355,13092,15576,0.010,551
2019-05-26T01:10:10,42.805,6.029,CST-1368DR,9355,13093,15577,0.010,551
2019-05-26T01:13:12,42.805,6.029,CST-1368DR,9354,13091,15577,0.010,551
2019-05-26T01:16:13,42.805,6.029,CST-1368DR,9354,13091,15576,0.010,550
2019-05-26T01:19:15,42.805,6.029,CST-1368DR,9354,13092,15577,0.010,551
2019-05-26T01:22:16,42.805,6.029,CST-1368DR,9354,13090,15575,0.011,551
2019-05-26T01:25:17,42.805,6.029,CST-1368DR,9354,13091,15576,0.010,551
2019-05-26T01:28:19,42.805,6.029,CST-1368DR,9354,13092,15578,0.010,551
2019-05-26T01:31:20,42.805,6.029,CST-1368DR,9354,13091,15576,0.010,551
2019-05-26T01:34:22,42.805,6.029,CST-1368DR,9354,13092,15577,0.010,550
2019-05-26T01:37:23,42.805,6.029,CST-1368DR,9354,13093,15579,0.009,551
2019-05-26T01:40:25,42.805,6.029,CST-1368DR,9354,13092,15578,0.010,551
2019-05-26T01:43:26,42.805,6.029,CST-1368DR,9354,13092,15578,0.010,551
2019-05-26T01:46:27,42.805,6.029,CST-1368DR,9354,13090,15575,0.011,551
2019-05-26T01:49:29,42.805,6.029,CST-1368DR,9354,13092,15578,0.010,551
2019-05-26T01:52:30,42.805,6.029,CST-1368DR,9354,13091,15577,0.010,550
2019-05-26T01:55:32,42.805,6.029,CST-1368DR,9354,13090,15576,0.010,551
2019-05-26T01:58:33,42.805,6.029,CST-1368DR,9354,13090,15576,0.010,551
2019-05-26T02:01:34,42.805,6.029,CST-1368DR,9354,13091,15576,0.010,551
2019-05-26T02:04:36,42.805,6.029,CST-1368DR,9354,13091,15576,0.010,551
2019-05-26T02:07:37,42.805,6.029,CST-1368DR,9354,13089,15574,0.011,551
2019-05-26T02:10:39,42.805,6.029,CST-1368DR,9354,13091,15577,0.010,551
2019-05-26T02:13:40,42.805,6.029,CST-1368DR,9354,13089,15574,0.011,551
2019-05-26T02:16:41,42.805,6.029,CST-1368DR,9354,13091,15576,0.010,551
2019-05-26T02:19:43,42.805,6.029,CST-1368DR,9354,13091,15576,0.010,551
2019-05-26T02:22:44,42.805,6.029,CST-1368DR,9353,13092,15579,0.009,551
2019-05-26T02:25:46,42.805,6.029,CST-1368DR,9353,13092,15579,0.009,551
2019-05-26T02:28:47,42.805,6.029,CST-1368DR,9353,13090,15576,0.010,551
2019-05-26T02:31:49,42.805,6.029,CST-1368DR,9353,13090,15577,0.010,551
2019-05-26T02:34:50,42.805,6.029,CST-1368DR,9353,13091,15578,0.010,551
2019-05-26T02:37:51,42.805,6.029,CST-1368DR,9353,13091,15578,0.010,551
2019-05-26T02:40:53,42.805,6.029,CST-1368DR,9353,13091,15578,0.010,551
2019-05-26T02:43:54,42.805,6.029,CST-1368DR,9353,13090,15577,0.010,551
2019-05-26T02:46:56,42.805,6.029,CST-1368DR,9353,13088,15574,0.011,551
2019-05-26T02:49:57,42.805,6.029,CST-1368DR,9353,13089,15576,0.010,551
2019-05-26T02:52:58,42.805,6.029,CST-1368DR,9353,13088,15575,0.011,551
2019-05-26T02:56:00,42.805,6.029,CST-1368DR,9353,13092,15579,0.009,551
2019-05-26T02:59:01,42.805,6.029,CST-1368DR,9353,13092,15579,0.009,551
2019-05-26T03:02:03,42.805,6.029,CST-1368DR,9353,13090,15577,0.010,551
2019-05-26T03:05:04,42.805,6.029,CST-1368DR,9353,13089,15576,0.010,551
2019-05-26T03:08:05,42.805,6.029,CST-1368DR,9353,13088,15575,0.011,551
2019-05-26T03:11:07,42.805,6.029,CST-1368DR,9353,13092,15579,0.009,551
2019-05-26T03:14:08,42.805,6.029,CST-1368DR,9353,13090,15577,0.010,550
2019-05-26T03:17:10,42.805,6.029,CST-1368DR,9353,13090,15577,0.010,551
2019-05-26T03:20:11,42.805,6.029,CST-1368DR,9353,13091,15579,0.009,550
2019-05-26T03:23:12,42.805,6.029,CST-1368DR,9353,13090,15577,0.010,551
2019-05-26T03:26:14,42.805,6.029,CST-1368DR,9353,13089,15576,0.010,551
2019-05-26T03:29:15,42.805,6.029,CST-1368DR,9353,13089,15575,0.011,551
2019-05-26T03:32:17,42.805,6.029,CST-1368DR,9352,13085,15573,0.011,551
2019-05-26T03:35:18,42.805,6.029,CST-1368DR,9352,13090,15578,0.010,551
2019-05-26T03:38:20,42.805,6.029,CST-1368DR,9352,13091,15579,0.009,551
2019-05-26T03:41:21,42.805,6.029,CST-1368DR,9352,13087,15574,0.011,551
2019-05-26T03:44:22,42.805,6.029,CST-1368DR,9352,13090,15579,0.009,551
2019-05-26T03:47:24,42.805,6.029,CST-1368DR,9352,13090,15578,0.010,551
2019-05-26T03:50:25,42.805,6.029,CST-1368DR,9352,13090,15579,0.009,550
2019-05-26T03:53:27,42.805,6.029,CST-1368DR,9352,13089,15578,0.010,550
2019-05-26T03:56:28,42.805,6.029,CST-1368DR,9352,13090,15578,0.010,551
2019-05-26T03:59:29,42.805,6.029,CST-1368DR,9352,13089,15577,0.010,551
2019-05-26T04:02:31,42.805,6.029,CST-1368DR,9352,13089,15577,0.010,551
2019-05-26T04:05:32,42.805,6.029,CST-1368DR,9352,13087,15574,0.011,551
2019-05-26T04:08:34,42.805,6.029,CST-1368DR,9352,13091,15579,0.009,551
2019-05-26T04:11:35,42.805,6.029,CST-1368DR,9352,13090,15578,0.010,551
2019-05-26T04:14:36,42.805,6.029,CST-1368DR,9352,13089,15577,0.010,551
2019-05-26T04:17:38,42.805,6.029,CST-1368DR,9352,13089,15577,0.010,550
2019-05-26T04:20:39,42.805,6.029,CST-1368DR,9352,13089,15577,0.010,551
2019-05-26T04:23:41,42.805,6.029,CST-1368DR,9352,13087,15575,0.011,551
2019-05-26T04:26:42,42.805,6.029,CST-1368DR,9352,13089,15577,0.010,551
2019-05-26T04:29:44,42.805,6.029,CST-1368DR,9352,13087,15575,0.011,551
2019-05-26T04:32:45,42.805,6.029,CST-1368DR,9352,13088,15576,0.010,551
2019-05-26T04:35:46,42.805,6.029,CST-1368DR,9352,13089,15577,0.010,551
2019-05-26T04:38:48,42.805,6.029,CST-1368DR,9352,13072,15557,0.015,551
2019-05-26T04:41:49,42.805,6.029,CST-1368DR,9352,13088,15577,0.010,551
2019-05-26T04:44:51,42.805,6.029,CST-1368DR,9352,13083,15570,0.012,551
2019-05-26T04:47:52,42.805,6.029,CST-1368DR,9352,13089,15578,0.010,550
2019-05-26T04:50:53,42.805,6.029,CST-1368DR,9352,13086,15574,0.011,551
2019-05-26T04:53:55,42.805,6.029,CST-1368DR,9352,13089,15577,0.010,551
2019-05-26T04:56:56,42.805,6.029,CST-1368DR,9352,13089,15577,0.010,551
2019-05-26T04:59:58,42.805,6.029,CST-1368DR,9352,13087,15575,0.011,551
2019-05-26T05:02:59,42.805,6.029,CST-1368DR,9351,13089,15579,0.009,551
2019-05-26T05:06:00,42.805,6.029,CST-1368DR,9351,13088,15577,0.010,551
2019-05-26T05:09:02,42.805,6.029,CST-1368DR,9351,13088,15578,0.010,551
2019-05-26T05:12:03,42.805,6.029,CST-1368DR,9351,13089,15578,0.010,551
2019-05-26T05:15:05,42.805,6.029,CST-1368DR,9351,13089,15579,0.009,551
2019-05-26T05:18:06,42.805,6.029,CST-1368DR,9351,13087,15577,0.010,551
2019-05-26T05:21:07,42.805,6.029,CST-1368DR,9351,13084,15572,0.011,551
2019-05-26T05:24:09,42.805,6.029,CST-1368DR,9351,13087,15577,0.010,551
2019-05-26T05:27:10,42.805,6.029,CST-1368DR,9351,13088,15578,0.010,550
2019-05-26T05:30:12,42.805,6.029,CST-1368DR,9351,13088,15578,0.010,550
2019-05-26T05:33:13,42.805,6.029,CST-1368DR,9351,13088,15577,0.010,551
2019-05-26T05:36:15,42.805,6.029,CST-1368DR,9351,13085,15574,0.011,551
2019-05-26T05:39:16,42.805,6.029,CST-1368DR,9351,13086,15575,0.011,551
2019-05-26T05:42:17,42.805,6.029,CST-1368DR,9351,13086,15575,0.011,551
2019-05-26T05:45:19,42.805,6.029,CST-1368DR,9351,13087,15576,0.010,551
2019-05-26T05:48:20,42.805,6.029,CST-1368DR,9351,13086,15575,0.011,551
2019-05-26T05:51:22,42.805,6.029,CST-1368DR,9351,13088,15577,0.010,551
2019-05-26T05:54:23,42.805,6.029,CST-1368DR,9351,13085,15574,0.011,551
2019-05-26T05:57:24,42.805,6.029,CST-1368DR,9351,13086,15575,0.011,551
2019-05-26T06:00:26,42.805,6.029,CST-1368DR,9351,13089,15579,0.009,551
2019-05-26T06:03:27,42.805,6.029,CST-1368DR,9351,13085,15574,0.011,551
2019-05-26T06:06:29,42.805,6.029,CST-1368DR,9351,13087,15577,0.010,550
2019-05-26T06:09:30,42.805,6.029,CST-1368DR,9351,13087,15577,0.010,551
2019-05-26T06:12:31,42.805,6.029,CST-1368DR,9351,13087,15576,0.010,551
2019-05-26T06:15:33,42.805,6.029,CST-1368DR,9351,13087,15577,0.010,551
2019-05-26T06:18:34,42.805,6.029,CST-1368DR,9351,13088,15578,0.010,550
2019-05-26T06:21:36,42.805,6.029,CST-1368DR,9351,13084,15572,0.011,551
2019-05-26T06:24:37,42.805,6.029,CST-1368DR,9351,13086,15575,0.011,551
2019-05-26T06:27:38,42.805,6.029,CST-1368DR,9350,13080,15570,0.012,551
2019-05-26T06:30:40,42.805,6.029,CST-1368DR,9351,13087,15577,0.010,551
2019-05-26T06:33:41,42.805,6.029,CST-1368DR,9351,13087,15576,0.010,551
2019-05-26T06:36:43,42.805,6.029,CST-1368DR,9350,13087,15578,0.010,551
2019-05-26T06:39:44,42.805,6.029,CST-1368DR,9350,13085,15576,0.010,551
2019-05-26T06:42:46,42.805,6.029,CST-1368DR,9350,13087,15578,0.010,551
2019-05-26T06:45:47,42.805,6.029,CST-1368DR,9350,13085,15576,0.010,551
2019-05-26T06:48:48,42.805,6.029,CST-1368DR,9350,13087,15578,0.010,550
2019-05-26T06:51:50,42.805,6.029,CST-1368DR,9350,13088,15579,0.009,551
2019-05-26T06:54:51,42.805,6.029,CST-1368DR,9350,13086,15576,0.010,551
2019-05-26T06:57:53,42.805,6.029,CST-1368DR,9350,13087,15578,0.010,551
2019-05-26T07:00:54,42.805,6.029,CST-1368DR,9350,13086,15577,0.010,551
2019-05-26T07:03:55,42.805,6.029,CST-1368DR,9350,13085,15576,0.010,550
2019-05-26T07:06:57,42.805,6.029,CST-1368DR,9350,13087,15578,0.010,551
2019-05-26T07:09:58,42.805,6.029,CST-1368DR,9350,13084,15574,0.011,551
2019-05-26T07:13:00,42.805,6.029,CST-1368DR,9350,13086,15577,0.010,551
2019-05-26T07:16:01,42.805,6.029,CST-1368DR,9350,13083,15574,0.011,551
2019-05-26T07:19:02,42.805,6.029,CST-1368DR,9350,13087,15577,0.010,551
2019-05-26T07:22:04,42.805,6.029,CST-1368DR,9350,13087,15577,0.010,551
2019-05-26T07:25:05,42.805,6.029,CST-1368DR,9350,13085,15576,0.010,550
2019-05-26T07:28:07,42.805,6.029,CST-1368DR,9350,13081,15570,0.012,551
2019-05-26T07:31:08,42.805,6.029,CST-1368DR,9350,13086,15577,0.010,551
2019-05-26T07:34:10,42.805,6.029,CST-1368DR,9350,13086,15576,0.010,551
2019-05-26T07:37:11,42.805,6.029,CST-1368DR,9350,13084,15575,0.011,551
2019-05-26T07:40:12,42.805,6.029,CST-1368DR,9350,13086,15577,0.010,551
2019-05-26T07:43:14,42.805,6.029,CST-1368DR,9350,13084,15574,0.011,551
2019-05-26T07:46:15,42.805,6.029,CST-1368DR,9349,13079,15570,0.012,551
2019-05-26T07:49:17,42.805,6.029,CST-1368DR,9350,13085,15576,0.010,551
2019-05-26T07:52:18,42.805,6.029,CST-1368DR,9350,13086,15577,0.010,551
2019-05-26T07:55:19,42.805,6.029,CST-1368DR,9350,13083,15574,0.011,551
2019-05-26T07:58:21,42.805,6.029,CST-1368DR,9349,13083,15575,0.011,551
2019-05-26T08:01:22,42.805,6.029,CST-1368DR,9349,13085,15577,0.010,551
2019-05-26T08:04:24,42.805,6.029,CST-1368DR,9349,13084,15576,0.010,551
2019-05-26T08:07:25,42.805,6.029,CST-1368DR,9349,13084,15576,0.010,551
2019-05-26T08:10:26,42.805,6.029,CST-1368DR,9349,13082,15574,0.011,550
2019-05-26T08:13:28,42.805,6.029,CST-1368DR,9349,13082,15574,0.011,551
2019-05-26T08:16:29,42.805,6.029,CST-1368DR,9349,13085,15578,0.010,551
2019-05-26T08:19:31,42.805,6.029,CST-1368DR,9349,13081,15573,0.011,551
2019-05-26T08:22:32,42.805,6.029,CST-1368DR,9349,13082,15574,0.011,550
2019-05-26T08:25:33,42.805,6.029,CST-1368DR,9349,13085,15577,0.010,551
2019-05-26T08:28:35,42.805,6.029,CST-1368DR,9349,13082,15573,0.011,550
2019-05-26T08:31:36,42.805,6.029,CST-1368DR,9349,13085,15577,0.010,551
2019-05-26T08:34:38,42.805,6.029,CST-1368DR,9349,13085,15577,0.010,551
2019-05-26T08:37:39,42.805,6.029,CST-1368DR,9349,13085,15577,0.010,550
2019-05-26T08:40:41,42.805,6.029,CST-1368DR,9349,13083,15575,0.011,551
2019-05-26T08:43:42,42.805,6.029,CST-1368DR,9349,13085,15577,0.010,551
2019-05-26T08:46:43,42.805,6.029,CST-1368DR,9349,13078,15569,0.012,551
2019-05-26T08:49:45,42.805,6.029,CST-1368DR,9349,13081,15572,0.011,551
2019-05-26T08:52:46,42.805,6.029,CST-1368DR,9349,13085,15577,0.010,551
2019-05-26T08:55:48,42.805,6.029,CST-1368DR,9349,13085,15577,0.010,551
2019-05-26T08:58:49,42.805,6.029,CST-1368DR,9349,13085,15577,0.010,551
2019-05-26T09:01:50,42.805,6.029,CST-1368DR,9349,13079,15570,0.012,551
2019-05-26T09:04:52,42.805,6.029,CST-1368DR,9349,13080,15571,0.012,551
2019-05-26T09:07:53,42.805,6.029,CST-1368DR,9349,13084,15576,0.010,551
2019-05-26T09:10:55,42.805,6.029,CST-1368DR,9349,13081,15572,0.011,551
2019-05-26T09:13:56,42.805,6.029,CST-1368DR,9349,13082,15574,0.011,551
2019-05-26T09:16:57,42.805,6.029,CST-1368DR,9349,13083,15575,0.011,551
2019-05-26T09:19:59,42.805,6.029,CST-1368DR,9349,13083,15574,0.011,551
2019-05-26T09:23:00,42.805,6.029,CST-1368DR,9349,13080,15571,0.012,551
2019-05-26T09:26:02,42.805,6.029,CST-1368DR,9348,13082,15575,0.011,551
2019-05-26T09:29:03,42.805,6.029,CST-1368DR,9348,13080,15572,0.011,551
2019-05-26T09:32:05,42.805,6.029,CST-1368DR,9348,13081,15574,0.011,551
2019-05-26T09:35:06,42.805,6.029,CST-1368DR,9348,13083,15577,0.010,551
2019-05-26T09:38:07,42.805,6.029,CST-1368DR,9348,13082,15575,0.011,551
2019-05-26T09:41:09,42.805,6.029,CST-1368DR,9348,13081,15574,0.011,551
2019-05-26T09:44:10,42.805,6.029,CST-1368DR,9348,13082,15575,0.011,551
2019-05-26T09:47:12,42.805,6.029,CST-1368DR,9348,13082,15575,0.011,551
2019-05-26T09:50:13,42.805,6.029,CST-1368DR,9348,13081,15574,0.011,551
2019-05-26T09:53:14,42.805,6.029,CST-1368DR,9348,13083,15577,0.010,551
2019-05-26T09:56:16,42.805,6.029,CST-1368DR,9348,13080,15573,0.011,551
2019-05-26T09:59:17,42.805,6.029,CST-1368DR,9348,13081,15574,0.011,551
2019-05-26T10:02:19,42.805,6.029,CST-1368DR,9348,13081,15574,0.011,551
2019-05-26T10:05:20,42.805,6.029,CST-1368DR,9348,13077,15569,0.012,551
2019-05-26T10:08:21,42.805,6.029,CST-1368DR,9348,13082,15575,0.011,551
2019-05-26T10:11:23,42.805,6.029,CST-1368DR,9348,13082,15575,0.011,551
2019-05-26T10:14:24,42.805,6.029,CST-1368DR,9348,13082,15575,0.011,551
2019-05-26T10:17:26,42.805,6.029,CST-1368DR,9347,13082,15576,0.010,551
2019-05-26T10:20:27,42.805,6.029,CST-1368DR,9348,13082,15575,0.011,551
2019-05-26T10:23:28,42.805,6.029,CST-1368DR,9348,13081,15574,0.011,551
2019-05-26T10:26:30,42.805,6.029,CST-1368DR,9347,13080,15575,0.011,551
2019-05-26T10:29:31,42.805,6.029,CST-1368DR,9347,13076,15569,0.012,551
2019-05-26T10:32:33,42.805,6.029,CST-1368DR,9347,13082,15577,0.010,550
2019-05-26T10:35:34,42.805,6.029,CST-1368DR,9347,13082,15576,0.010,551
2019-05-26T10:38:36,42.805,6.029,CST-1368DR,9347,13077,15570,0.012,551
2019-05-26T10:41:37,42.805,6.029,CST-1368DR,9347,13077,15571,0.012,551
2019-05-26T10:44:38,42.805,6.029,CST-1368DR,9347,13082,15576,0.010,551
2019-05-26T10:47:40,42.805,6.029,CST-1368DR,9347,13075,15568,0.012,550
2019-05-26T10:50:41,42.805,6.029,CST-1368DR,9347,13076,15569,0.012,551
2019-05-26T10:53:43,42.805,6.029,CST-1368DR,9347,13079,15573,0.011,551
2019-05-26T10:56:44,42.805,6.029,CST-1368DR,9347,13080,15575,0.011,551
2019-05-26T10:59:45,42.805,6.029,CST-1368DR,9347,13080,15574,0.011,550
2019-05-26T11:02:47,42.805,6.029,CST-1368DR,9347,13081,15575,0.011,551
2019-05-26T11:05:48,42.805,6.029,CST-1368DR,9347,13078,15572,0.011,551
2019-05-26T11:08:50,42.805,6.029,CST-1368DR,9347,13071,15564,0.013,551
2019-05-26T11:11:51,42.805,6.029,CST-1368DR,9347,13079,15573,0.011,550
2019-05-26T11:14:52,42.805,6.029,CST-1368DR,9347,13082,15576,0.010,550
2019-05-26T11:17:54,42.805,6.029,CST-1368DR,9347,13081,15576,0.010,551
2019-05-26T11:20:55,42.805,6.029,CST-1368DR,9347,13081,15575,0.011,551
2019-05-26T11:23:57,42.805,6.029,CST-1368DR,9347,13071,15564,0.013,551
2019-05-26T11:26:58,42.805,6.029,CST-1368DR,9347,13081,15575,0.011,551
2019-05-26T11:29:59,42.805,6.029,CST-1368DR,9347,13081,15576,0.010,551
2019-05-26T11:33:01,42.805,6.029,CST-1368DR,9347,13081,15576,0.010,551
2019-05-26T11:36:02,42.805,6.029,CST-1368DR,9347,13079,15573,0.011,551
2019-05-26T11:39:04,42.805,6.029,CST-1368DR,9347,13079,15573,0.011,551
2019-05-26T11:42:05,42.805,6.029,CST-1368DR,9347,13076,15570,0.012,551
2019-05-26T11:45:07,42.805,6.029,CST-1368DR,9347,13080,15574,0.011,551
2019-05-26T11:48:08,42.805,6.029,CST-1368DR,9347,13080,15575,0.011,551
2019-05-26T11:51:09,42.805,6.029,CST-1368DR,9347,13081,15575,0.011,551
2019-05-26T11:54:11,42.805,6.029,CST-1368DR,9347,13080,15574,0.011,551
2019-05-26T11:57:12,42.805,6.029,CST-1368DR,9347,13079,15573,0.011,550
2019-05-26T12:00:14,42.805,6.029,CST-1368DR,9347,13079,15573,0.011,551
2019-05-26T12:03:15,42.805,6.029,CST-1368DR,9346,13074,15569,0.012,550
2019-05-26T12:06:16,42.805,6.029,CST-1368DR,9346,13071,15565,0.013,550
2019-05-26T12:09:18,42.805,6.029,CST-1368DR,9346,13080,15576,0.010,551
2019-05-26T12:12:19,42.805,6.029,CST-1368DR,9346,13079,15574,0.011,551
2019-05-26T12:15:21,42.805,6.029,CST-1368DR,9346,13080,15575,0.011,550
2019-05-26T12:18:22,42.805,6.029,CST-1368DR,9346,13075,15569,0.012,551
2019-05-26T12:21:23,42.805,6.029,CST-1368DR,9347,13080,15574,0.011,550
2019-05-26T12:24:25,42.805,6.029,CST-1368DR,9346,13079,15575,0.011,551
2019-05-26T12:27:26,42.805,6.029,CST-1368DR,9346,13079,15575,0.011,551
2019-05-26T12:30:28,42.805,6.029,CST-1368DR,9346,13079,15574,0.011,551
2019-05-26T12:33:29,42.805,6.029,CST-1368DR,9346,13080,15576,0.010,551
2019-05-26T12:36:30,42.805,6.029,CST-1368DR,9346,13077,15572,0.011,551
2019-05-26T12:39:32,42.805,6.029,CST-1368DR,9346,13075,15570,0.012,550
2019-05-26T12:42:33,42.805,6.029,CST-1368DR,9346,13075,15570,0.012,551
2019-05-26T12:45:35,42.805,6.029,CST-1368DR,9346,13076,15571,0.012,551
2019-05-26T12:48:36,42.805,6.029,CST-1368DR,9346,13075,15570,0.012,551
2019-05-26T12:51:38,42.805,6.029,CST-1368DR,9346,13080,15575,0.011,551
2019-05-26T12:54:39,42.805,6.029,CST-1368DR,9346,13079,15574,0.011,551
2019-05-26T12:57:40,42.805,6.029,CST-1368DR,9346,13079,15575,0.011,551
2019-05-26T13:00:42,42.805,6.029,CST-1368DR,9346,13079,15575,0.011,551
2019-05-26T13:03:43,42.805,6.029,CST-1368DR,9346,13076,15571,0.012,551
2019-05-26T13:06:45,42.805,6.029,CST-1368DR,9346,13080,15576,0.010,551
2019-05-26T13:09:46,42.805,6.029,CST-1368DR,9346,13080,15576,0.010,550
2019-05-26T13:12:47,42.805,6.029,CST-1368DR,9346,13079,15574,0.011,551
2019-05-26T13:15:49,42.805,6.029,CST-1368DR,9346,13075,15570,0.012,550
2019-05-26T13:18:50,42.805,6.029,CST-1368DR,9346,13077,15573,0.011,551
2019-05-26T13:21:52,42.805,6.029,CST-1368DR,9346,13078,15574,0.011,551
2019-05-26T13:24:53,42.805,6.029,CST-1368DR,9346,13077,15572,0.011,551
2019-05-26T13:27:54,42.805,6.029,CST-1368DR,9346,13081,15576,0.010,551
2019-05-26T13:30:56,42.805,6.029,CST-1368DR,9346,13079,15575,0.011,551
2019-05-26T13:33:57,42.805,6.029,CST-1368DR,9346,13077,15572,0.011,551
2019-05-26T13:36:59,42.805,6.029,CST-1368DR,9346,13073,15568,0.012,551
2019-05-26T13:40:00,42.805,6.029,CST-1368DR,9346,13080,15576,0.010,551
2019-05-26T13:43:01,42.805,6.029,CST-1368DR,9346,13079,15574,0.011,551
2019-05-26T13:46:03,42.805,6.029,CST-1368DR,9346,13079,15575,0.011,551
2019-05-26T13:49:04,42.805,6.029,CST-1368DR,9346,13073,15568,0.012,551
2019-05-26T13:52:06,42.805,6.029,CST-1368DR,9345,13078,15575,0.011,551
2019-05-26T13:55:07,42.805,6.029,CST-1368DR,9346,13079,15575,0.011,551
2019-05-26T13:58:09,42.805,6.029,CST-1368DR,9346,13080,15576,0.010,551
2019-05-26T14:01:10,42.805,6.029,CST-1368DR,9345,13077,15574,0.011,551
2019-05-26T14:04:11,42.805,6.029,CST-1368DR,9345,13079,15576,0.010,550
2019-05-26T14:07:13,42.805,6.029,CST-1368DR,9345,13080,15578,0.010,551
2019-05-26T14:10:14,42.805,6.029,CST-1368DR,9345,13076,15573,0.011,551
2019-05-26T14:13:16,42.805,6.029,CST-1368DR,9345,13080,15577,0.010,551
2019-05-26T14:16:17,42.805,6.029,CST-1368DR,9345,13079,15576,0.010,551
2019-05-26T14:19:18,42.805,6.029,CST-1368DR,9345,13078,15575,0.011,551
2019-05-26T14:22:20,42.805,6.029,CST-1368DR,9345,13078,15575,0.011,551
2019-05-26T14:25:21,42.805,6.029,CST-1368DR,9345,13077,15573,0.011,551
2019-05-26T14:28:23,42.805,6.029,CST-1368DR,9345,13079,15576,0.010,550
2019-05-26T14:31:24,42.805,6.029,CST-1368DR,9345,13079,15576,0.010,551
2019-05-26T14:34:25,42.805,6.029,CST-1368DR,9345,13077,15573,0.011,551
2019-05-26T14:37:27,42.805,6.029,CST-1368DR,9345,13075,15571,0.012,550
2019-05-26T14:40:28,42.805,6.029,CST-1368DR,9345,13078,15575,0.011,551
2019-05-26T14:43:30,42.805,6.029,CST-1368DR,9345,13080,15577,0.010,551
2019-05-26T14:46:31,42.805,6.029,CST-1368DR,9345,13079,15576,0.010,551
2019-05-26T14:49:33,42.805,6.029,CST-1368DR,9345,13080,15577,0.010,551
2019-05-26T14:52:34,42.805,6.029,CST-1368DR,9345,13076,15573,0.011,551
2019-05-26T14:55:35,42.805,6.029,CST-1368DR,9345,13079,15576,0.010,551
2019-05-26T14:58:37,42.805,6.029,CST-1368DR,9345,13078,15575,0.011,551
2019-05-26T15:01:38,42.805,6.029,CST-1368DR,9345,13080,15577,0.010,551
2019-05-26T15:04:40,42.805,6.029,CST-1368DR,9345,13077,15574,0.011,551
2019-05-26T15:07:41,42.805,6.029,CST-1368DR,9345,13079,15576,0.010,551
2019-05-26T15:10:42,42.805,6.029,CST-1368DR,9345,13076,15573,0.011,551
2019-05-26T15:13:44,42.805,6.029,CST-1368DR,9344,13072,15569,0.012,551
2019-05-26T15:16:45,42.805,6.029,CST-1368DR,9345,13077,15573,0.011,551
2019-05-26T15:19:47,42.805,6.029,CST-1368DR,9345,13078,15575,0.011,551
2019-05-26T15:22:48,42.805,6.029,CST-1368DR,9345,13079,15576,0.010,551
2019-05-26T15:25:49,42.805,6.029,CST-1368DR,9345,13077,15574,0.011,550
2019-05-26T15:28:51,42.805,6.029,CST-1368DR,9345,13079,15576,0.010,551
2019-05-26T15:31:52,42.805,6.029,CST-1368DR,9344,13072,15569,0.012,551
2019-05-26T15:34:54,42.805,6.029,CST-1368DR,9344,13078,15577,0.010,551
2019-05-26T15:37:55,42.805,6.029,CST-1368DR,9344,13068,15565,0.013,550
2019-05-26T15:40:56,42.805,6.029,CST-1368DR,9344,13079,15577,0.010,551
2019-05-26T15:43:58,42.805,6.029,CST-1368DR,9344,13079,15578,0.010,551
2019-05-26T15:46:59,42.805,6.029,CST-1368DR,9344,13078,15577,0.010,551
2019-05-26T15:50:01,42.805,6.029,CST-1368DR,9344,13078,15577,0.010,551
2019-05-26T15:53:02,42.805,6.029,CST-1368DR,9344,13078,15577,0.010,551
2019-05-26T15:56:04,42.805,6.029,CST-1368DR,9344,13075,15573,0.011,551
2019-05-26T15:59:05,42.805,6.029,CST-1368DR,9344,13077,15575,0.011,551
2019-05-26T16:02:06,42.805,6.029,CST-1368DR,9344,13077,15575,0.011,550
2019-05-26T16:05:08,42.805,6.029,CST-1368DR,9344,13076,15574,0.011,550
2019-05-26T16:08:09,42.805,6.029,CST-1368DR,9344,13078,15577,0.010,551
2019-05-26T16:11:11,42.805,6.029,CST-1368DR,9344,13078,15576,0.010,551
2019-05-26T16:14:12,42.805,6.029,CST-1368DR,9344,13074,15572,0.011,551
2019-05-26T16:17:13,42.805,6.029,CST-1368DR,9344,13078,15577,0.010,551
2019-05-26T16:20:15,42.805,6.029,CST-1368DR,9344,13079,15577,0.010,551
2019-05-26T16:23:16,42.805,6.029,CST-1368DR,9344,13072,15569,0.012,551
2019-05-26T16:26:18,42.805,6.029,CST-1368DR,9344,13077,15576,0.010,551
2019-05-26T16:29:19,42.805,6.029,CST-1368DR,9344,13078,15577,0.010,550
2019-05-26T16:32:20,42.805,6.029,CST-1368DR,9344,13078,15577,0.010,550
2019-05-26T16:35:22,42.805,6.029,CST-1368DR,9344,13077,15576,0.010,551